User: anonymous   Login
Location: Stendal
(52.5994°N, 11.8400°E)
Time: 22:10:56
(UTC+02:00)
Language:

ISS - Orbit

View from above orbital plane
View from above orbital plane
View from above satellite
View from above satellite

Ground track
Ground track

The orbit data is extracted from the following two-line orbital elements,

1 25544U 98067A   21269.55166448 -.00025964  00000-0 -46717-3 0  9995
2 25544  51.6425 201.5366 0004063  27.1506 144.0547 15.48840828304305
Epoch (UTC): 26 September 2021 13:14:23
Eccentricity: 0.0004063
inclination: 51.6425°
perigee height: 417 km
apogee height: 423 km
right ascension of ascending node: 201.5366°
argument of perigee: 27.1506°
revolutions per day: 15.48840828
mean anomaly at epoch: 144.0547°
orbit number at epoch: 30430

The dashed part of the orbit path shows where the satellite is in the earth's shadow,  

DLR